Glasgow, MT

7:22 AM MDT on July 26, 2017 (GMT -0600)
Wokal-Glasgow International

Weather History for KGGW - June, 2014

Change the Weather History Date:

Wednesday, June 4, 2014

  Actual Average Record
Temperature  
Mean Temperature 66 °F 61 °F  
Max Temperature 78 °F 73 °F 102 °F (1988)
Min Temperature 53 °F 49 °F 31 °F (1907)
Degree Days  
Heating Degree Days 0 6  
Month to date heating degree days 8 24  
Since 1 June heating degree days 8 24  
Since 1 July heating degree days 8816 8355  
Cooling Degree Days 1 1  
Month to date cooling degree days 2 4  
Year to date cooling degree days 36 21  
Since 1 June cooling degree days 2 4  
Growing Degree Days 16 (Base 50)    
Moisture  
Dew Point 50 °F    
Average Humidity 68    
Maximum Humidity 100    
Minimum Humidity 36    
Precipitation  
Precipitation T in 0.09 in 1.59 in (1948)
Month to date precipitation 0.15 0.35  
Year to date precipitation 3.54 4.17  
Snow  
Snow 0.00 in 0.00 in 0.00 in (2002)
Month to date snowfall 0.0 0.0  
Since 1 June snowfall 0.0 0.0  
Since 1 July snowfall 30.4 34.8  
Snow Depth 0.00 in    
Sea Level Pressure  
Sea Level Pressure 29.81 in    
Wind  
Wind Speed 10 mph (WNW)    
Max Wind Speed 36 mph    
Max Gust Speed 45 mph    
Visibility 10 miles    
Events Rain , Thunderstorm    
T = Trace of Precipitation, MM = Missing Value Source: NWS Daily Summary

Daily Weather History Graph

Daily Weather History Graph

Search for Another Location

Airport or City:

Trip Planner

Search our weather history database for the weather conditions in past years. The results will help you decide how hot, cold, wet, or windy it might be!

Date:

Astronomy

Jun. 04, 2014 Rise Set
Actual Time 5:08 AM MDT 9:01 PM MDT
Civil Twilight 4:27 AM MDT 9:42 PM MDT
Nautical Twilight 3:32 AM MDT 10:38 PM MDT
Astronomical Twilight 2:06 AM MDT 12:05 AM MDT
Moon 11:52 AM MDT (6/4) 12:41 AM MDT (6/4)
Length of Visible Light 17h 14m
Length of Day
15h 53m
Waxing Crescent, 39% of the Moon is Illuminated
Jun 4
Waxing Crescent
Jun 5
First Quarter
Jun 12
Full
Jun 19
Last Quarter
Jun 27
New

Hourly Weather History & Observations

Time (MDT) Temp. Dew Point Humidity Pressure Visibility Wind Dir Wind Speed Gust Speed Precip Events Conditions
12:53 AM 57.2 °F 55.4 °F 94% 29.82 in 10.0 mi SW 3.5 mph - N/A   Mostly Cloudy
1:53 AM 57.0 °F 55.0 °F 93% 29.78 in 10.0 mi ESE 10.4 mph - N/A   Clear
2:53 AM 55.0 °F 54.0 °F 96% 29.78 in 10.0 mi ESE 8.1 mph - N/A   Clear
3:53 AM 53.1 °F 52.0 °F 96% 29.78 in 10.0 mi ESE 4.6 mph - N/A   Clear
4:53 AM 53.1 °F 53.1 °F 100% 29.78 in 9.0 mi South 4.6 mph - N/A   Scattered Clouds
5:53 AM 55.0 °F 53.1 °F 93% 29.78 in 10.0 mi Calm Calm - N/A   Scattered Clouds
6:53 AM 55.9 °F 55.0 °F 97% 29.80 in 10.0 mi SW 4.6 mph - N/A   Mostly Cloudy
7:53 AM 60.1 °F 55.0 °F 83% 29.81 in 10.0 mi WNW 10.4 mph - N/A   Clear
8:53 AM 64.0 °F 55.9 °F 75% 29.82 in 10.0 mi WNW 10.4 mph - N/A   Clear
9:53 AM 68.0 °F 54.0 °F 61% 29.81 in 10.0 mi WNW 12.7 mph - N/A   Clear
10:53 AM 71.1 °F 53.1 °F 53% 29.81 in 10.0 mi WNW 9.2 mph - N/A   Clear
11:53 AM 73.0 °F 50.0 °F 44% 29.81 in 10.0 mi West 11.5 mph 24.2 mph N/A   Clear
12:53 PM 75.9 °F 46.0 °F 35% 29.79 in 10.0 mi West 15.0 mph 24.2 mph N/A   Partly Cloudy
1:53 PM 71.1 °F 46.0 °F 41% 29.80 in 10.0 mi West 10.4 mph - 0.00 in Rain Light Rain
2:53 PM 73.0 °F 46.0 °F 38% 29.78 in 10.0 mi West 12.7 mph - 0.00 in   Partly Cloudy
3:41 PM 78.1 °F 45.0 °F 31% 29.78 in 10.0 mi West 16.1 mph 26.5 mph N/A Thunderstorm Scattered Clouds
3:53 PM 71.1 °F 50.0 °F 47% 29.80 in 10.0 mi NNW 28.8 mph 41.4 mph N/A Thunderstorm Scattered Clouds
3:55 PM 70.0 °F 51.1 °F 51% 29.81 in 10.0 mi NNW 32.2 mph 42.6 mph N/A   Scattered Clouds
4:03 PM 68.0 °F 51.1 °F 55% 29.82 in 10.0 mi North 31.1 mph 42.6 mph N/A Thunderstorm Partly Cloudy
4:19 PM 66.0 °F 50.0 °F 56% 29.82 in 10.0 mi North 25.3 mph 32.2 mph N/A   Clear
4:53 PM 70.0 °F 48.9 °F 47% 29.83 in 10.0 mi NNW 20.7 mph 25.3 mph N/A   Clear
5:53 PM 70.0 °F 46.9 °F 44% 29.82 in 10.0 mi NW 5.8 mph - N/A   Clear
6:53 PM 69.1 °F 43.0 °F 39% 29.82 in 10.0 mi NW 11.5 mph - N/A   Clear
7:53 PM 68.0 °F 44.1 °F 42% 29.81 in 10.0 mi NW 8.1 mph - N/A   Clear
8:53 PM 64.4 °F 46.4 °F 52% 29.84 in 10.0 mi WSW 4.6 mph - N/A   Clear
9:53 PM 60.1 °F 51.1 °F 72% 29.84 in 10.0 mi SW 6.9 mph - N/A   Clear
10:53 PM 57.9 °F 51.1 °F 78% 29.84 in 10.0 mi SW 6.9 mph - N/A   Clear
11:53 PM 55.9 °F 50.0 °F 80% 29.83 in 10.0 mi SW 8.1 mph - N/A   Clear